Flag for Japan Weather past 2 weeks in Yokohama, Japan

50 °F

Passing clouds.

Feels Like: 48 °F
Forecast: 41 / 56 °F
Wind: 6 mph from Northwest

Location: Tokyo International Airport

Current Time: Nov 27, 2015 at 9:01:32 PM

Latest Report: Nov 27, 2015 at 8:30 PM

Visibility: N/A

Pressure: 30.01 "Hg

Humidity: 43%

Dew point: 28 °F

Location of YokohamaLocation

Historic Weather in Yokohama — Graph


Yokohama temperature yesterday

Maximum temperature yesterday: 54 °F (at 2:30 PM)
Minimum temperature yesterday: 45 °F (at 12:00 AM)
Average temperature yesterday: 49 °F

Past Weeks' High & Low Weather Summary

High75 °F (Nov 17, 12:00 PM)100% (Nov 14, 5:30 PM)30.48 "Hg (Nov 14, 5:30 PM)
Low45 °F (Nov 25, 11:00 PM)16% (Nov 27, 1:00 PM)29.62 "Hg (Nov 27, 12:00 AM)
Average58 °F78%30.07 "Hg
* Reported Nov 12 8:00 PM — Nov 27 8:00 PM, Yokohama, Weather by CustomWeather, © 2015

Note: Actual official high and low records may vary slightly from our data, if they occured in-between our weather recording intervals... More about our weather records


Yokohama weather history for previous 24 hours

Time TempWeatherWind HumidityBarometerVisibility
8:00 PM
Fri, Nov 27
50 °FPassing clouds.8 mph43%29.98 "HgN/A
7:30 PM50 °FPassing clouds.9 mph40%29.98 "HgN/A
7:00 PM54 °FPassing clouds.10 mph38%29.95 "HgN/A
6:30 PM54 °FPassing clouds.3 mph30%29.95 "HgN/A
6:00 PM54 °FPassing clouds.5 mph30%29.92 "HgN/A
5:30 PM54 °FPassing clouds.8 mph30%29.89 "HgN/A
5:00 PM54 °FPassing clouds.8 mph28%29.89 "HgN/A
3:30 PM59 °FPassing clouds.15 mph20%29.80 "HgN/A
3:00 PM59 °FPassing clouds.14 mph20%29.80 "HgN/A
2:30 PM59 °FPassing clouds.16 mph18%29.77 "HgN/A
2:00 PM59 °FPassing clouds.15 mph17%29.77 "HgN/A
1:00 PM59 °FPassing clouds.20 mph16%29.74 "HgN/A
12:30 PM59 °FPassing clouds.16 mph17%29.74 "HgN/A
12:00 PM59 °FPassing clouds.18 mph23%29.71 "HgN/A
11:30 AM57 °FPassing clouds.18 mph18%29.71 "HgN/A
11:00 AM57 °FPassing clouds.16 mph20%29.71 "HgN/A
10:30 AM57 °FPassing clouds.18 mph20%29.71 "HgN/A
10:00 AM57 °FPassing clouds.21 mph23%29.71 "HgN/A
9:30 AM55 °FPassing clouds.20 mph26%29.71 "HgN/A
9:00 AM55 °FPassing clouds.16 mph28%29.68 "HgN/A
8:30 AM55 °FPassing clouds.14 mph31%29.71 "HgN/A
8:00 AM54 °FPassing clouds.17 mph30%29.71 "HgN/A
7:00 AM52 °FPassing clouds.15 mph35%29.68 "HgN/A
6:30 AM54 °FPassing clouds.16 mph26%29.65 "HgN/A
6:00 AM54 °FPassing clouds.13 mph28%29.65 "HgN/A
5:30 AM52 °FPassing clouds.14 mph35%29.65 "HgN/A
5:00 AM54 °FPassing clouds.14 mph38%29.65 "HgN/A
4:30 AM50 °FPassing clouds.8 mph62%29.65 "HgN/A
4:00 AM50 °FPassing clouds.8 mph58%29.65 "HgN/A
3:30 AM52 °FPassing clouds.10 mph50%29.65 "HgN/A
3:00 AM54 °FPassing clouds.16 mph41%29.62 "HgN/A
2:30 AM55 °FPassing clouds.15 mph38%29.62 "HgN/A
2:00 AM57 °FPassing clouds.16 mph36%29.62 "HgN/A
1:30 AM57 °FPassing clouds.14 mph51%29.62 "HgN/A
1:00 AM54 °FPassing clouds.9 mph77%29.62 "HgN/A
12:30 AM54 °FPassing clouds.9 mph82%29.62 "HgN/A
12:00 AM50 °FPassing clouds.5 mph94%29.62 "HgN/A
11:30 PM
Thu, Nov 26
52 °FPassing clouds.8 mph88%29.65 "HgN/A
11:00 PM52 °FPartly cloudy.8 mph94%29.65 "HgN/A
10:30 PM54 °FPartly cloudy.2 mph88%29.65 "HgN/A
10:00 PM50 °FPassing clouds.1 mph94%29.65 "HgN/A
9:30 PM52 °FPartly cloudy.1 mph94%29.68 "HgN/A
9:00 PM52 °FPassing clouds.2 mph94%29.68 "HgN/A
Weather by CustomWeather, © 2015

See weather overviewHow to use our weather pages